LHA421 LSZH-EDDS

Flight info

Callsign LHA421
Flight time N/A
Altitude 17000
Route DEGES Z1 ALAGO/N0367F220 Z4 ARSUT T125 REUTL
Aircraft B738/M-SDE1E2FGIJ1RWYZ/S

Departure

Time 2026-02-17 08:34
Airport Zürich Airport (LSZH)

Arrival

Time N/A
Airport Stuttgart Airport (EDDS)
Time Latitude Longitude Altitude Speed Heading
2026-02-17 08:03 47.45031 8.55914 1396 ft 0 kts
2026-02-17 08:24 47.45024 8.55912 1405 ft 3 kts
2026-02-17 08:24 47.45005 8.55914 1405 ft 3 kts 338°
2026-02-17 08:25 47.44990 8.55928 1400 ft 3 kts 301°
2026-02-17 08:25 47.44983 8.55951 1403 ft 2 kts 277°
2026-02-17 08:25 47.44983 8.55954 1396 ft 1 kts 276°
2026-02-17 08:28 47.44982 8.55947 1403 ft 1 kts 254°
2026-02-17 08:28 47.44977 8.55933 1401 ft 2 kts 245°
2026-02-17 08:29 47.44970 8.55910 1396 ft 3 kts 245°
2026-02-17 08:29 47.44955 8.55857 1403 ft 9 kts 250°
2026-02-17 08:29 47.44974 8.55764 1400 ft 10 kts 317°
2026-02-17 08:29 47.45041 8.55712 1397 ft 12 kts 335°
2026-02-17 08:30 47.45122 8.55658 1401 ft 13 kts 335°
2026-02-17 08:30 47.45200 8.55604 1399 ft 12 kts 335°
2026-02-17 08:30 47.45281 8.55564 1401 ft 14 kts 347°
2026-02-17 08:31 47.45496 8.55426 1398 ft 19 kts 333°
2026-02-17 08:31 47.45601 8.55350 1405 ft 12 kts 337°
2026-02-17 08:31 47.45668 8.55388 1399 ft 13 kts 77°
2026-02-17 08:31 47.45649 8.55699 1396 ft 39 kts 95°
2026-02-17 08:32 47.45623 8.56089 1396 ft 37 kts 97°
2026-02-17 08:32 47.45596 8.56451 1397 ft 33 kts 95°
2026-02-17 08:32 47.45577 8.56778 1403 ft 30 kts 95°
2026-02-17 08:32 47.45579 8.56998 1405 ft 15 kts 44°
2026-02-17 08:33 47.45663 8.56980 1400 ft 14 kts 295°
2026-02-17 08:33 47.45685 8.56651 1397 ft 71 kts 276°
2026-02-17 08:33 47.45768 8.55475 1395 ft 150 kts 275°
2026-02-17 08:33 47.45900 8.53664 1733 ft 193 kts 274°
2026-02-17 08:34 47.46048 8.51733 2707 ft 197 kts 276°
2026-02-17 08:34 47.46199 8.49605 3253 ft 215 kts 275°
2026-02-17 08:34 47.46147 8.47476 4325 ft 204 kts 255°
2026-02-17 08:35 47.44414 8.44202 6110 ft 219 kts 216°
2026-02-17 08:35 47.43300 8.42782 6865 ft 208 kts 251°
2026-02-17 08:35 47.42961 8.40771 7724 ft 203 kts 263°
2026-02-17 08:35 47.42640 8.38704 8492 ft 211 kts 256°
2026-02-17 08:36 47.41721 8.36953 9274 ft 232 kts 216°
2026-02-17 08:36 47.40083 8.36439 10003 ft 255 kts 177°
2026-02-17 08:36 47.38444 8.37526 10673 ft 270 kts 138°
2026-02-17 08:36 47.37474 8.39853 11351 ft 272 kts 99°
2026-02-17 08:37 47.37553 8.42590 12007 ft 263 kts 61°
2026-02-17 08:37 47.38609 8.44593 12733 ft 245 kts 23°
2026-02-17 08:37 47.40112 8.45677 13525 ft 243 kts 21°
2026-02-17 08:37 47.41529 8.47147 14232 ft 254 kts 33°
2026-02-17 08:38 47.42790 8.49022 14957 ft 260 kts 41°
2026-02-17 08:38 47.43962 8.51129 15680 ft 264 kts 44°
2026-02-17 08:38 47.45068 8.53285 16378 ft 267 kts 45°
2026-02-17 08:39 47.46647 8.58558 16923 ft 323 kts 89°
2026-02-17 08:39 47.46044 8.61907 16933 ft 354 kts 112°
2026-02-17 08:39 47.45275 8.65436 16903 ft 370 kts 90°
2026-02-17 08:39 47.45362 8.69287 16910 ft 382 kts 74°
2026-02-17 08:40 47.46064 8.73124 16927 ft 391 kts 70°
2026-02-17 08:40 47.46549 8.77113 16915 ft 397 kts 79°
2026-02-17 08:40 47.46764 8.81186 16915 ft 399 kts 85°
2026-02-17 08:40 47.46485 8.85045 16910 ft 402 kts 101°
2026-02-17 08:41 47.45785 8.89179 16899 ft 401 kts 102°
2026-02-17 08:41 47.45142 8.93189 16898 ft 401 kts 100°
2026-02-17 08:41 47.44560 8.97153 16877 ft 388 kts 99°
2026-02-17 08:41 47.44017 9.00958 16518 ft 374 kts 99°
2026-02-17 08:42 47.43484 9.04778 16422 ft 385 kts 99°
2026-02-17 08:42 47.42936 9.08697 16555 ft 394 kts 99°
2026-02-17 08:42 47.42371 9.12699 16834 ft 400 kts 99°
2026-02-17 08:43 47.41568 9.20769 16899 ft 401 kts 88°
2026-02-17 08:43 47.41678 9.24843 16884 ft 394 kts 79°
2026-02-17 08:43 47.42155 9.28800 16886 ft 390 kts 71°
2026-02-17 08:43 47.42989 9.32584 16887 ft 386 kts 63°
2026-02-17 08:44 47.44155 9.36114 16897 ft 380 kts 54°
2026-02-17 08:44 47.45627 9.39324 16913 ft 376 kts 46°
2026-02-17 08:44 47.47372 9.42160 16913 ft 371 kts 38°